Regional Weather Roundup
Issued by NWS

Home | Current Version | Previous Version | Text Only | Print | Product List | Glossary Off
Versions: 1 2 3 4 5 6 7 8 9 10 11 12 13 14 15 16 17 18 19 20 21 22 23 24 25 26 27 28 29 30 31 32 33 34 35 36 37 38 39 40 41 42 43 44 45 46 47 48 49 50

000
ASUS43 KDTX 261810
RWRMI
MICHIGAN HOURLY REGIONAL WEATHER ROUNDUP
NATIONAL WEATHER SERVICE DETROIT/PONTIAC MI
200 PM EDT SUN MAR 26 2017

NOTE: "FAIR" INDICATES FEW OR NO CLOUDS BELOW 12,000 FEET WITH NO
SIGNIFICANT WEATHER AND/OR OBSTRUCTION TO VISIBILITY.

MIZ047>049-052>055-059>063-066>070-074>076-081>083-261900-
SOUTHEAST LOWER MICHIGAN

CITY           SKY/WX    TMP DP  RH WIND       PRES   REMARKS
ADRIAN         CLOUDY    44  43  96 S5        29.95S
6HR MIN TEMP:  39; 6HR MAX TEMP:  44; 6HR PCP:  0.17;

ALMA           LGT RAIN  44  43  98 E9        29.92F
6HR MIN TEMP:  37; 6HR MAX TEMP:  44;

ANN ARBOR      CLOUDY    46  45  96 E10       29.93F FOG
BAD AXE        LGT RAIN  44  40  87 SE3       29.98F
6HR MIN TEMP:  36; 6HR MAX TEMP:  44;

CARO           LGT RAIN  45  44  97 SE5       29.96F
DETROIT CITY   LGT RAIN  46  45  96 E6        29.97F FOG
6HR MIN TEMP:  39; 6HR MAX TEMP:  46; 6HR PCP:  0.06;

DETROIT        LGT RAIN  47  45  93 E7        29.96F FOG
6HR MIN TEMP:  40; 6HR MAX TEMP:  47; 6HR PCP:  0.15;

FLINT          LGT RAIN  46  44  93 E12       29.94F FOG
6HR MIN TEMP:  38; 6HR MAX TEMP:  46; 6HR PCP:  0.24;

GROSSE ILE     LGT RAIN  44  43  95 E6        29.95F
6HR MIN TEMP:  39; 6HR MAX TEMP:  45; 6HR PCP:  0.08;

HILLSDALE      CLOUDY    46  46 100 SE8       29.91F FOG
HOWELL         DRIZZLE   46  44  92 E6        29.91F
6HR MIN TEMP:  40; 6HR MAX TEMP:  46; 6HR PCP:  0.18;


CITY           SKY/WX    TMP DP  RH WIND       PRES   REMARKS
JACKSON        CLOUDY    48  46  93 SE8       29.91F
6HR MIN TEMP:  40; 6HR MAX TEMP:  48; 6HR PCP:  0.09;

LAMBERTVILLE   CLOUDY    44  42  93 E5        29.95F FOG
6HR MIN TEMP:  40; 6HR MAX TEMP:  44;

LANSING        LGT RAIN  47  44  90 SE9       29.91F FOG
6HR MIN TEMP:  40; 6HR MAX TEMP:  47; 6HR PCP:  0.05;

LAPEER         RAIN      46  44  95 SE6       29.97F
6HR MIN TEMP:  37; 6HR MAX TEMP:  46; 6HR PCP:  0.09;

MASON          CLOUDY    46  45  97 SW3       29.92S FOG
MONROE         CLOUDY    43  43  99 S7        29.94F FOG
6HR MIN TEMP:  39; 6HR MAX TEMP:  44; 6HR PCP:  0.10;

MT. CLEMENS    LGT RAIN  46  46 100 SE8       29.96F
6HR MIN TEMP:  38; 6HR MAX TEMP:  47; 6HR PCP:  0.07;

PONTIAC        LGT RAIN  45  43  93 E7        29.93F FOG
6HR MIN TEMP:  38; 6HR MAX TEMP:  45; 6HR PCP:  0.16;

PORT HOPE        N/A     35  34  96 E7        29.99F WCI  29
6HR MIN TEMP:  34; 6HR MAX TEMP:  36;

PORT HURON     LGT RAIN  48  45  87 CALM      29.97F
TRI CITIES     LGT RAIN  42  41  96 NE9       29.95F FOG
6HR MIN TEMP:  37; 6HR MAX TEMP:  42; 6HR PCP:  0.20;

MIDLAND        LGT RAIN  40  38  93 NE6       29.95F
6HR MIN TEMP:  37; 6HR MAX TEMP:  40; 6HR PCP:  0.01;

TROY           RAIN      45  42  90 E8        29.97F
SAGINAW HB     LGT RAIN  45  43  93 NE7       29.95F
$$
MIZ043>046-050>051-056>058-064>065-071>073-077>080-261900-
SOUTHWEST LOWER MICHIGAN

CITY           SKY/WX    TMP DP  RH WIND       PRES   REMARKS
BATTLE CREEK   CLOUDY    52  50  93 SE9       29.90F
6HR MIN TEMP:  42; 6HR MAX TEMP:  52; 6HR PCP:  0.09;

BENTON HARBOR  CLOUDY    56  53  90 SE9       29.85F
6HR MIN TEMP:  47; 6HR MAX TEMP:  56; 6HR PCP:  0.10;

BIG RAPIDS     CLOUDY    41  39  93 SE7       29.90S FOG
6HR MIN TEMP:  36; 6HR MAX TEMP:  41;

COLDWATER      CLOUDY    50  49  95 SE10      29.90F
6HR MIN TEMP:  42; 6HR MAX TEMP:  50;

FREMONT        LGT RAIN  43  43  98 E8        29.89F
HOLLAND        LGT RAIN  50  48  93 E7        29.88F FOG
6HR MIN TEMP:  43; 6HR MAX TEMP:  50; 6HR PCP:  0.22;

GRAND RAPIDS   LGT RAIN  47  47 100 E9        29.89F FOG
6HR MIN TEMP:  39; 6HR MAX TEMP:  47; 6HR PCP:  0.23;

IONIA          LGT RAIN  46  45  97 E7        29.90F
6HR MIN TEMP:  37; 6HR MAX TEMP:  46; 6HR PCP:  0.09;

KALAMAZOO      CLOUDY    52  48  86 S8        29.89F
6HR MIN TEMP:  43; 6HR MAX TEMP:  52; 6HR PCP:  0.12;

LUDINGTON      DRIZZLE   46  44  95 SE8       29.87F
6HR MIN TEMP:  39; 6HR MAX TEMP:  46; 6HR PCP:  0.12;

MARSHALL       CLOUDY    51  51  97 SE8       29.90F
6HR MIN TEMP:  41; 6HR MAX TEMP:  51; 6HR PCP:  0.17;

MOUNT PLEASANT LGT RAIN  40  39  95 E8        29.92F WCI  35
6HR MIN TEMP:  36; 6HR MAX TEMP:  40; 6HR PCP:  0.02;

MUSKEGON       CLOUDY    48  45  89 E12       29.88F FOG
6HR MIN TEMP:  41; 6HR MAX TEMP:  48; 6HR PCP:  0.19;

SOUTH HAVEN    LGT RAIN  54  53  96 SE5       29.86F
$$
MIZ016>042-261900-
NORTHERN LOWER MICHIGAN

CITY           SKY/WX    TMP DP  RH WIND       PRES   REMARKS
ALPENA         CLOUDY    38  36  92 SE13      30.00F WCI  30
6HR MIN TEMP:  34; 6HR MAX TEMP:  39; 6HR PCP: TRACE;

BEAVER ISLAND  CLOUDY    35  35  99 E7        29.96F WCI  29
6HR MIN TEMP:  32; 6HR MAX TEMP:  35;

BELLAIRE       CLOUDY    43  39  86 E3        29.93F
6HR MIN TEMP:  37; 6HR MAX TEMP:  44;

CADILLAC       CLOUDY    41  40  97 SE9       29.89F FOG
CHARLEVOIX     CLOUDY    39  38  97 E6        29.97S WCI  35
6HR MIN TEMP:  35; 6HR MAX TEMP:  39;

FRANKFORT      CLOUDY    44  41  87 E3        29.87F
GAYLORD        LGT RAIN  41  37  86 SE7       29.93F FOG
6HR MIN TEMP:  35; 6HR MAX TEMP:  40; 6HR PCP:  0.05;

GRAYLING       LGT RAIN  39  39 100 E8        29.95F WCI  34
HARBOR SPRINGS CLOUDY    37  36  98 E8        29.95F WCI  30
HOUGHTON LAKE  LGT RAIN  40  38  93 E9        29.93F FOG     WCI  34
6HR MIN TEMP:  35; 6HR MAX TEMP:  40; 6HR PCP:  0.09;

MANISTEE       LGT RAIN  47  44  90 SE7       29.88S
OSCODA         MIX PCPN  38  35  88 NE9       29.97F WCI  32
6HR MIN TEMP:  36; 6HR MAX TEMP:  41; 6HR PCP:  0.01;

PELLSTON       CLOUDY    36  34  92 E8        29.97F WCI  30
6HR MIN TEMP:  33; 6HR MAX TEMP:  36; 6HR PCP:  0.03;

ROGERS CITY    CLOUDY    37  35  90 SE12G17   30.00R WCI  30
TRAVERSE CITY  LGT RAIN  46  41  82 E7        29.89F
6HR MIN TEMP:  38; 6HR MAX TEMP:  46; 6HR PCP: TRACE;

$$
MIZ007>008-015-261900-
EASTERN UPPER MICHIGAN

CITY           SKY/WX    TMP DP  RH WIND       PRES   REMARKS
KINROSS        CLOUDY    32  31  96 E14G22    30.00F WCI  22
6HR MIN TEMP:  30; 6HR MAX TEMP:  32; 6HR PCP:  0.04;

MACKINAC ISLAN CLOUDY    33  33 100 E13G25    29.98S WCI  24
6HR MIN TEMP:  32; 6HR MAX TEMP:  33; 6HR PCP:  0.03;

NEWBERRY       CLOUDY    32  32  99 SE10      29.96S FOG     WCI  24
6HR MIN TEMP:  32; 6HR MAX TEMP:  32;

S. S. MARIE    CLOUDY    34  31  88 E7G16     30.00F WCI  28
6HR MIN TEMP:  32; 6HR MAX TEMP:  34; 6HR PCP:  0.04;

MUNISING         N/A     37  34  89 S3        29.94F
6HR MIN TEMP:  33; 6HR MAX TEMP:  37; 6HR PCP:  0.02;

$$
MIZ004>006-011>014-085-261900-
CENTRAL UPPER MICHIGAN

CITY           SKY/WX    TMP DP  RH WIND       PRES   REMARKS
MANISTIQUE     CLOUDY    34  34 100 E13G18    29.96S FOG     WCI  25
ESCANABA       LGT RAIN  36  35  96 NE9       29.94F WCI  29
6HR MIN TEMP:  32; 6HR MAX TEMP:  36; 6HR PCP:  0.06;

MENOMINEE        N/A    N/A N/A N/A MISG        N/A
SAWYER-GWINN   CLOUDY    32  32 100 CALM      29.94F FOG
$$
MIZ001>003-009>011-084-261900-
WESTERN UPPER MICHIGAN

CITY           SKY/WX    TMP DP  RH WIND       PRES   REMARKS
IRON MOUNTAIN  LGT RAIN  34  32  92 N5        29.90F FOG     WCI  30
6HR MIN TEMP:  32; 6HR MAX TEMP:  34; 6HR PCP: TRACE;

HOUGHTON       CLOUDY    33  30  88 E5        29.93F WCI  29
6HR MIN TEMP:  32; 6HR MAX TEMP:  33;

COPPER HARBOR    N/A     35  33  92 S5        29.96F WCI  31
6HR MIN TEMP:  32; 6HR MAX TEMP:  35; 6HR PCP:  0.02;

IRONWOOD       CLOUDY    39  36  89 NE3       29.92F
6HR MIN TEMP:  32; 6HR MAX TEMP:  40; 6HR PCP: TRACE;

$$

ABBREVIATIONS USED IN REMARKS
   TC - TEMPERATURE IN CELSIUS
  WCI - WIND CHILL INDEX
   HX - HEAT INDEX
  VSB - VISIBILITY




USA.gov is the U.S. government's official web portal to all federal, state and local government web resources and services.